sat.trackr.live / text

‹ back to catalog

STARLINK-36040

NORAD 66614 · 2025-270AC

PAYLOAD ACTIVE UNKNOWN

§ Identity

Operator
Country
US
Launch date
2025-11-22
Launch site
AFETR
Launch vehicle
Mass (kg)
RCS (m²)

Purposes: comms

External: N2YO · Heavens-Above · Gunter

§ Orbital elements

Epoch: 2026-05-24T22:36:25.216128Z

Period
94.27 min
Inclination
43.0039°
Eccentricity
0.0001386
Mean motion
15.27602973 rev/d
Perigee alt
482.0 km
Apogee alt
483.9 km
Semi-major
6,861.1 km
B*
5.7063e-4
RAAN
345.8925°
Arg perigee
270.6673°
Mean anomaly
89.4020°
Rev number
2,920

§ Raw data

STARLINK-360401 66614U 25270AC  26144.94195852  .00015484  00000+0  57063-3 0  99942 66614  43.0039 345.8925 0001386 270.6673  89.4020 15.27602973 29207

JSON: /api/v1/satellites/66614 · /tle

For live sub-satellite position, see the globe view (requires WebGL).

§ Visibility from observer

Set your observer location to see the next 7 days of passes ≥ 10°. The values pass through the URL so the page stays shareable.

No JS? Fill the form by hand. The geolocation button needs JavaScript.